Location: *
(44.3526°S, 44.9014°W)
Time: 00:12:29
(UTC+00:00)

NOSS 3-1 (A) - Pass Details

Date: 13 May 2025
Orbit: 667 x 1541 km, 63.4° (Epoch: 12 June)

Event Time Altitude Azimuth Distance (km) Brightness Sun altitude
Rises 21:04:54 0° 218° (SW) 4,127 7.1 -14.4°
Reaches altitude 10° 21:08:17 10° 208° (SSW) 3,006 6.3 -15.0°
Maximum altitude 21:14:25 31° 147° (SSE) 1,616 4.3 -16.1°
Enters shadow 21:16:37 25° 111° (ESE) 1,762 4.3 -16.5°
